| time (UTC) | temp C | wind direction | speed KPH | gust KPH | rain 1hr cm | rain 24hr cm | rain mn cm | humidity % | barometer mb |
| 20260903231024 | 35 | 242 | 3.2 | 17.7 | 0.00 | 0.00 | 0.00 | 42 | 1010.9 |
| 20260903230524 | 35 | 143 | 4.8 | 17.7 | 0.00 | 0.00 | 0.00 | 41 | 1010.8 |
| 20260903230046 | 35 | 176 | 3.2 | 17.7 | 0.00 | 0.00 | 0.00 | 41 | 1010.8 |
| 20260903225528 | 35 | 186 | 4.8 | 20.9 | 0.00 | 0.00 | 0.00 | 41 | 1010.8 |
| 20260903225025 | 35 | 0 | 4.8 | 20.9 | 0.00 | 0.00 | 0.00 | 41 | 1010.8 |
| 20260903224551 | 35 | 258 | 6.4 | 22.5 | 0.00 | 0.00 | 0.00 | 41 | 1010.7 |
| 20260903224029 | 35 | 159 | 8.0 | 22.5 | 0.00 | 0.00 | 0.00 | 41 | 1010.8 |
| 20260903223524 | 35 | 188 | 4.8 | 22.5 | 0.00 | 0.00 | 0.00 | 42 | 1010.8 |
| 20260903223045 | 35 | 184 | 8.0 | 22.5 | 0.00 | 0.00 | 0.00 | 41 | 1010.8 |
| 20260903222525 | 35 | 182 | 4.8 | 25.7 | 0.00 | 0.00 | 0.00 | 42 | 1010.8 |
| 20260903222029 | 35 | 109 | 8.0 | 27.4 | 0.00 | 0.00 | 0.00 | 42 | 1010.9 |
| 20260903221543 | 36 | 0 | 3.2 | 30.6 | 0.00 | 0.00 | 0.00 | 42 | 1010.9 |
| 20260903221024 | 36 | 238 | 4.8 | 30.6 | 0.00 | 0.00 | 0.00 | 42 | 1010.9 |
| 20260903220524 | 36 | 132 | 6.4 | 25.7 | 0.00 | 0.00 | 0.00 | 42 | 1010.9 |
| 20260903220105 | 35 | 219 | 8.0 | 25.7 | 0.00 | 0.00 | 0.00 | 43 | 1010.9 |
| 20260903215528 | 36 | 85 | 9.7 | 27.4 | 0.00 | 0.00 | 0.00 | 42 | 1011.0 |
| 20260903215024 | 36 | 190 | 9.7 | 29.0 | 0.00 | 0.00 | 0.00 | 43 | 1011.0 |
| 20260903214543 | 36 | 135 | 4.8 | 29.0 | 0.00 | 0.00 | 0.00 | 42 | 1011.0 |
| 20260903214022 | 36 | 96 | 8.0 | 19.3 | 0.00 | 0.00 | 0.00 | 43 | 1011.1 |
| 20260903213528 | 36 | 270 | 4.8 | 22.5 | 0.00 | 0.00 | 0.00 | 42 | 1011.1 |
| 20260903213043 | 36 | 246 | 11.3 | 22.5 | 0.00 | 0.00 | 0.00 | 42 | 1011.1 |
| 20260903212522 | 36 | 147 | 8.0 | 20.9 | 0.00 | 0.00 | 0.00 | 42 | 1011.1 |
| 20260903212025 | 36 | 0 | 6.4 | 20.9 | 0.00 | 0.00 | 0.00 | 42 | 1011.1 |
| 20260903211611 | 36 | 134 | 8.0 | 22.5 | 0.00 | 0.00 | 0.00 | 43 | 1011.2 |
| 20260903211028 | 36 | 140 | 3.2 | 25.7 | 0.00 | 0.00 | 0.00 | 43 | 1011.1 |
| 20260903210524 | 36 | 0 | 3.2 | 25.7 | 0.00 | 0.00 | 0.00 | 43 | 1011.2 |
| 20260903210054 | 36 | 144 | 9.7 | 25.7 | 0.00 | 0.00 | 0.00 | 43 | 1011.3 |
| 20260903205525 | 36 | 93 | 6.4 | 20.9 | 0.00 | 0.00 | 0.00 | 42 | 1011.4 |
| 20260903205023 | 36 | 154 | 6.4 | 20.9 | 0.00 | 0.00 | 0.00 | 43 | 1011.4 |
| 20260903204542 | 35 | 181 | 6.4 | 27.4 | 0.00 | 0.00 | 0.00 | 44 | 1011.5 |
| 20260903204025 | 35 | 105 | 8.0 | 27.4 | 0.00 | 0.00 | 0.00 | 42 | 1011.6 |
| 20260903203525 | 36 | 0 | 8.0 | 24.1 | 0.00 | 0.00 | 0.00 | 43 | 1011.6 |
| 20260903203043 | 36 | 191 | 6.4 | 19.3 | 0.00 | 0.00 | 0.00 | 43 | 1011.8 |
| 20260903202524 | 36 | 195 | 4.8 | 19.3 | 0.00 | 0.00 | 0.00 | 42 | 1011.8 |
| 20260903202027 | 35 | 0 | 6.4 | 20.9 | 0.00 | 0.00 | 0.00 | 45 | 1011.8 |
| 20260903201542 | 35 | 197 | 8.0 | 24.1 | 0.00 | 0.00 | 0.00 | 44 | 1011.9 |
| 20260903201023 | 35 | 215 | 8.0 | 25.7 | 0.00 | 0.00 | 0.00 | 43 | 1012.0 |
| 20260903200523 | 35 | 131 | 6.4 | 25.7 | 0.00 | 0.00 | 0.00 | 44 | 1012.0 |
| 20260903200048 | 35 | 214 | 4.8 | 20.9 | 0.00 | 0.00 | 0.00 | 45 | 1012.1 |
| 20260903195525 | 35 | 193 | 6.4 | 20.9 | 0.00 | 0.00 | 0.00 | 45 | 1012.2 |
| 20260903195024 | 35 | 161 | 8.0 | 20.9 | 0.00 | 0.00 | 0.00 | 46 | 1012.2 |
| 20260903194548 | 35 | 190 | 6.4 | 19.3 | 0.00 | 0.00 | 0.00 | 45 | 1012.2 |
| 20260903194024 | 35 | 126 | 4.8 | 19.3 | 0.00 | 0.00 | 0.00 | 45 | 1012.4 |
| 20260903193526 | 36 | 274 | 3.2 | 17.7 | 0.00 | 0.00 | 0.00 | 46 | 1012.3 |
| 20260903193046 | 35 | 157 | 4.8 | 20.9 | 0.00 | 0.00 | 0.00 | 47 | 1012.3 |
| 20260903192525 | 35 | 140 | 8.0 | 22.5 | 0.00 | 0.00 | 0.00 | 46 | 1012.4 |
| 20260903192024 | 35 | 178 | 8.0 | 22.5 | 0.00 | 0.00 | 0.00 | 46 | 1012.3 |
| 20260903191542 | 35 | 0 | 6.4 | 22.5 | 0.00 | 0.00 | 0.00 | 46 | 1012.4 |
| 20260903191025 | 35 | 143 | 8.0 | 20.9 | 0.00 | 0.00 | 0.00 | 46 | 1012.4 |
| 20260903190525 | 35 | 0 | 4.8 | 17.7 | 0.00 | 0.00 | 0.00 | 46 | 1012.4 |
| 20260903190048 | 35 | 198 | 8.0 | 17.7 | 0.00 | 0.00 | 0.00 | 46 | 1012.5 |
| 20260903185523 | 35 | 155 | 4.8 | 25.7 | 0.00 | 0.00 | 0.00 | 46 | 1012.5 |
| 20260903185024 | 35 | 253 | 4.8 | 25.7 | 0.00 | 0.00 | 0.00 | 47 | 1012.6 |
| 20260903184542 | 35 | 0 | 8.0 | 24.1 | 0.00 | 0.00 | 0.00 | 47 | 1012.7 |
| 20260903184027 | 35 | 159 | 6.4 | 24.1 | 0.00 | 0.00 | 0.00 | 47 | 1012.7 |
| 20260903183528 | 35 | 196 | 4.8 | 24.1 | 0.00 | 0.00 | 0.00 | 48 | 1012.8 |
| 20260903183052 | 34 | 133 | 9.7 | 24.1 | 0.00 | 0.00 | 0.00 | 49 | 1012.8 |
| 20260903182526 | 33 | 164 | 6.4 | 27.4 | 0.00 | 0.00 | 0.00 | 49 | 1012.9 |
| 20260903182024 | 34 | 176 | 8.0 | 32.2 | 0.00 | 0.00 | 0.00 | 48 | 1013.1 |
| 20260903181545 | 35 | 171 | 8.0 | 32.2 | 0.00 | 0.00 | 0.00 | 45 | 1013.0 |
| 20260903181023 | 35 | 0 | 1.6 | 14.5 | 0.00 | 0.00 | 0.00 | 48 | 1013.1 |
| 20260903180524 | 35 | 0 | 4.8 | 22.5 | 0.00 | 0.00 | 0.00 | 46 | 1013.1 |
| 20260903180044 | 34 | 0 | 6.4 | 22.5 | 0.00 | 0.00 | 0.00 | 46 | 1013.3 |
| 20260903175528 | 35 | 153 | 4.8 | 17.7 | 0.00 | 0.00 | 0.00 | 46 | 1013.4 |
| 20260903175024 | 34 | 225 | 6.4 | 19.3 | 0.00 | 0.00 | 0.00 | 48 | 1013.4 |
| 20260903174600 | 34 | 165 | 4.8 | 19.3 | 0.00 | 0.00 | 0.00 | 47 | 1013.5 |
| 20260903174024 | 34 | 271 | 3.2 | 19.3 | 0.00 | 0.00 | 0.00 | 47 | 1013.5 |
| 20260903173525 | 34 | 0 | 4.8 | 19.3 | 0.00 | 0.00 | 0.00 | 47 | 1013.6 |
| 20260903173043 | 34 | 327 | 3.2 | 22.5 | 0.00 | 0.00 | 0.00 | 48 | 1013.6 |
| 20260903172524 | 33 | 0 | 6.4 | 22.5 | 0.00 | 0.00 | 0.00 | 50 | 1013.6 |
| 20260903172024 | 33 | 152 | 8.0 | 22.5 | 0.00 | 0.00 | 0.00 | 48 | 1013.7 |
| 20260903171548 | 33 | 141 | 3.2 | 19.3 | 0.00 | 0.00 | 0.00 | 49 | 1013.8 |
| 20260903171021 | 33 | 180 | 4.8 | 20.9 | 0.00 | 0.00 | 0.00 | 49 | 1013.9 |
| 20260903170524 | 33 | 181 | 8.0 | 24.1 | 0.00 | 0.00 | 0.00 | 49 | 1014.0 |
| 20260903170104 | 33 | 263 | 4.8 | 24.1 | 0.00 | 0.00 | 0.00 | 50 | 1014.0 |
| 20260903165522 | 33 | 192 | 4.8 | 20.9 | 0.00 | 0.00 | 0.00 | 51 | 1014.1 |
| 20260903165024 | 32 | 171 | 8.0 | 19.3 | 0.00 | 0.00 | 0.00 | 51 | 1014.1 |
| 20260903164550 | 32 | 317 | 6.4 | 24.1 | 0.00 | 0.00 | 0.00 | 52 | 1014.1 |
| 20260903164024 | 32 | 166 | 6.4 | 24.1 | 0.00 | 0.00 | 0.00 | 53 | 1014.1 |
| 20260903163523 | 32 | 165 | 6.4 | 22.5 | 0.00 | 0.00 | 0.00 | 52 | 1014.1 |
| 20260903163045 | 32 | 218 | 4.8 | 22.5 | 0.00 | 0.00 | 0.00 | 53 | 1014.1 |
| 20260903162522 | 32 | 152 | 1.6 | 22.5 | 0.00 | 0.00 | 0.00 | 53 | 1014.1 |
| 20260903162025 | 32 | 182 | 6.4 | 22.5 | 0.00 | 0.00 | 0.00 | 54 | 1014.1 |
| 20260903161544 | 32 | 156 | 3.2 | 19.3 | 0.00 | 0.00 | 0.00 | 54 | 1014.2 |
| 20260903161026 | 32 | 199 | 4.8 | 25.7 | 0.00 | 0.00 | 0.00 | 54 | 1014.1 |
| 20260903160525 | 31 | 215 | 9.7 | 25.7 | 0.00 | 0.00 | 0.00 | 53 | 1014.1 |
| 20260903160041 | 32 | 113 | 8.0 | 20.9 | 0.00 | 0.00 | 0.00 | 54 | 1014.1 |
| 20260903155525 | 31 | 163 | 3.2 | 20.9 | 0.00 | 0.00 | 0.00 | 55 | 1014.1 |
| 20260903155026 | 31 | 201 | 6.4 | 20.9 | 0.00 | 0.00 | 0.00 | 55 | 1014.3 |
| 20260903154546 | 31 | 117 | 6.4 | 20.9 | 0.00 | 0.00 | 0.00 | 55 | 1014.2 |
| 20260903154024 | 31 | 0 | 3.2 | 19.3 | 0.00 | 0.00 | 0.00 | 58 | 1014.2 |
| 20260903153525 | 31 | 271 | 3.2 | 20.9 | 0.00 | 0.00 | 0.00 | 57 | 1014.1 |
| 20260903153054 | 31 | 0 | 4.8 | 20.9 | 0.00 | 0.00 | 0.00 | 58 | 1014.2 |
| 20260903152526 | 30 | 41 | 6.4 | 20.9 | 0.00 | 0.00 | 0.00 | 58 | 1014.3 |
| 20260903152024 | 30 | 256 | 4.8 | 17.7 | 0.00 | 0.00 | 0.00 | 59 | 1014.3 |
| 20260903151553 | 30 | 0 | 3.2 | 29.0 | 0.00 | 0.00 | 0.00 | 59 | 1014.3 |
| 20260903151023 | 30 | 0 | 4.8 | 29.0 | 0.00 | 0.00 | 0.00 | 61 | 1014.3 |
| 20260903150522 | 30 | 166 | 8.0 | 29.0 | 0.00 | 0.00 | 0.00 | 60 | 1014.2 |
| 20260903150046 | 30 | 12 | 3.2 | 27.4 | 0.00 | 0.00 | 0.00 | 62 | 1014.2 |
| 20260903145528 | 30 | 154 | 4.8 | 27.4 | 0.00 | 0.00 | 0.00 | 62 | 1014.2 |
| 20260903145028 | 30 | 194 | 4.8 | 22.5 | 0.00 | 0.00 | 0.00 | 62 | 1014.1 |
| 20260903144547 | 29 | 173 | 4.8 | 22.5 | 0.00 | 0.00 | 0.00 | 63 | 1014.1 |
| 20260903144025 | 29 | 196 | 3.2 | 22.5 | 0.00 | 0.00 | 0.00 | 64 | 1014.2 |
| 20260903143525 | 28 | 206 | 1.6 | 20.9 | 0.00 | 0.00 | 0.00 | 66 | 1014.3 |
| 20260903143044 | 28 | 0 | 4.8 | 20.9 | 0.00 | 0.00 | 0.00 | 66 | 1014.3 |
| 20260903142525 | 28 | 205 | 4.8 | 16.1 | 0.00 | 0.00 | 0.00 | 66 | 1014.4 |
| 20260903142026 | 28 | 0 | 1.6 | 25.7 | 0.00 | 0.00 | 0.00 | 67 | 1014.3 |
| 20260903141549 | 27 | 159 | 3.2 | 25.7 | 0.00 | 0.00 | 0.00 | 68 | 1014.3 |
| 20260903141025 | 27 | 228 | 4.8 | 17.7 | 0.00 | 0.00 | 0.00 | 68 | 1014.4 |
| 20260903140524 | 27 | 178 | 3.2 | 17.7 | 0.00 | 0.00 | 0.00 | 68 | 1014.4 |
| 20260903140047 | 27 | 175 | 1.6 | 11.3 | 0.00 | 0.00 | 0.00 | 69 | 1014.4 |
| 20260903135525 | 27 | 164 | 1.6 | 20.9 | 0.00 | 0.00 | 0.00 | 69 | 1014.3 |
| 20260903135025 | 27 | 244 | 3.2 | 20.9 | 0.00 | 0.00 | 0.00 | 69 | 1014.5 |
| 20260903134544 | 26 | 194 | 4.8 | 17.7 | 0.00 | 0.00 | 0.00 | 70 | 1014.5 |
| 20260903134027 | 26 | 161 | 1.6 | 16.1 | 0.00 | 0.00 | 0.00 | 70 | 1014.5 |
| 20260903133525 | 26 | 0 | 1.6 | 9.7 | 0.00 | 0.00 | 0.00 | 71 | 1014.6 |
| 20260903133054 | 26 | 169 | 1.6 | 12.9 | 0.00 | 0.00 | 0.00 | 71 | 1014.5 |
| 20260903132523 | 26 | 0 | 1.6 | 12.9 | 0.00 | 0.00 | 0.00 | 71 | 1014.5 |
| 20260903132024 | 26 | 200 | 1.6 | 14.5 | 0.00 | 0.00 | 0.00 | 72 | 1014.5 |
| 20260903131555 | 25 | 161 | 4.8 | 14.5 | 0.00 | 0.00 | 0.00 | 72 | 1014.5 |
| 20260903131026 | 25 | 180 | 3.2 | 12.9 | 0.00 | 0.00 | 0.00 | 72 | 1014.5 |
| 20260903130525 | 25 | 176 | 1.6 | 12.9 | 0.00 | 0.00 | 0.00 | 73 | 1014.5 |
| 20260903130044 | 25 | 0 | 4.8 | 16.1 | 0.00 | 0.00 | 0.00 | 73 | 1014.5 |
| 20260903125523 | 25 | 206 | 3.2 | 16.1 | 0.00 | 0.00 | 0.00 | 74 | 1014.5 |
| 20260903125023 | 25 | 162 | 3.2 | 9.7 | 0.00 | 0.00 | 0.00 | 74 | 1014.4 |
| 20260903124546 | 25 | 0 | 1.6 | 8.0 | 0.00 | 0.00 | 0.00 | 74 | 1014.4 |
| 20260903124022 | 25 | 0 | 1.6 | 8.0 | 0.00 | 0.00 | 0.00 | 74 | 1014.3 |
| 20260903123526 | 25 | 180 | 1.6 | 16.1 | 0.00 | 0.00 | 0.00 | 73 | 1014.3 |
| 20260903123048 | 25 | 177 | 3.2 | 16.1 | 0.00 | 0.00 | 0.00 | 74 | 1014.2 |
| 20260903122529 | 25 | 180 | 0.0 | 9.7 | 0.00 | 0.00 | 0.00 | 74 | 1014.2 |
| 20260903122026 | 24 | 190 | 0.0 | 11.3 | 0.00 | 0.00 | 0.00 | 74 | 1014.2 |
| 20260903121546 | 25 | 186 | 1.6 | 11.3 | 0.00 | 0.00 | 0.00 | 73 | 1014.1 |
| 20260903121023 | 24 | 155 | 1.6 | 9.7 | 0.00 | 0.00 | 0.00 | 74 | 1014.1 |
| 20260903120525 | 24 | 214 | 0.0 | 14.5 | 0.00 | 0.00 | 0.00 | 73 | 1014.0 |
| 20260903120048 | 24 | 165 | 1.6 | 14.5 | 0.00 | 0.00 | 0.00 | 73 | 1013.9 |
| 20260903115531 | 25 | 169 | 0.0 | 8.0 | 0.00 | 0.00 | 0.00 | 73 | 1013.9 |
| 20260903115028 | 25 | 0 | 0.0 | 9.7 | 0.00 | 0.00 | 0.00 | 73 | 1013.8 |
| 20260903114542 | 25 | 0 | 1.6 | 9.7 | 0.00 | 0.00 | 0.00 | 73 | 1013.7 |
| 20260903114023 | 25 | 167 | 1.6 | 9.7 | 0.00 | 0.00 | 0.00 | 72 | 1013.6 |
| 20260903113526 | 25 | 168 | 1.6 | 16.1 | 0.00 | 0.00 | 0.00 | 72 | 1013.7 |
| 20260903113042 | 25 | 191 | 1.6 | 16.1 | 0.00 | 0.00 | 0.00 | 72 | 1013.6 |
| 20260903112525 | 25 | 180 | 4.8 | 16.1 | 0.00 | 0.00 | 0.00 | 72 | 1013.6 |
| 20260903112025 | 25 | 188 | 1.6 | 12.9 | 0.00 | 0.00 | 0.00 | 72 | 1013.6 |
| 20260903111615 | 25 | 180 | 0.0 | 11.3 | 0.00 | 0.00 | 0.00 | 72 | 1013.7 |
| 20260903111028 | 25 | 173 | 1.6 | 11.3 | 0.00 | 0.00 | 0.00 | 72 | 1013.7 |
| 20260903110524 | 25 | 0 | 0.0 | 12.9 | 0.00 | 0.00 | 0.00 | 72 | 1013.5 |
| 20260903110043 | 25 | 180 | 3.2 | 14.5 | 0.00 | 0.00 | 0.00 | 72 | 1013.6 |
| 20260903105526 | 25 | 0 | 1.6 | 14.5 | 0.00 | 0.00 | 0.00 | 72 | 1013.6 |
| 20260903105025 | 25 | 212 | 1.6 | 11.3 | 0.00 | 0.00 | 0.00 | 72 | 1013.6 |
| 20260903104600 | 25 | 183 | 0.0 | 9.7 | 0.00 | 0.00 | 0.00 | 72 | 1013.5 |
| 20260903104026 | 25 | 0 | 1.6 | 9.7 | 0.00 | 0.00 | 0.00 | 71 | 1013.5 |
| 20260903103525 | 25 | 155 | 3.2 | 11.3 | 0.00 | 0.00 | 0.00 | 71 | 1013.5 |
| 20260903103042 | 25 | 178 | 3.2 | 11.3 | 0.00 | 0.00 | 0.00 | 71 | 1013.5 |
| 20260903102526 | 25 | 0 | 1.6 | 11.3 | 0.00 | 0.00 | 0.00 | 70 | 1013.5 |
| 20260903102025 | 25 | 165 | 1.6 | 11.3 | 0.00 | 0.00 | 0.00 | 70 | 1013.4 |
| 20260903101545 | 25 | 0 | 3.2 | 9.7 | 0.00 | 0.00 | 0.00 | 70 | 1013.4 |
| 20260903101025 | 25 | 177 | 1.6 | 9.7 | 0.00 | 0.00 | 0.00 | 70 | 1013.4 |
| 20260903100527 | 25 | 0 | 0.0 | 8.0 | 0.00 | 0.00 | 0.00 | 70 | 1013.5 |
| 20260903100048 | 25 | 0 | 0.0 | 8.0 | 0.00 | 0.00 | 0.00 | 70 | 1013.4 |
| 20260903095524 | 25 | 0 | 0.0 | 8.0 | 0.00 | 0.00 | 0.00 | 70 | 1013.3 |
| 20260903095026 | 25 | 0 | 0.0 | 14.5 | 0.00 | 0.00 | 0.00 | 70 | 1013.4 |
| 20260903094555 | 25 | 180 | 0.0 | 14.5 | 0.00 | 0.00 | 0.00 | 70 | 1013.4 |
| 20260903094028 | 25 | 0 | 3.2 | 14.5 | 0.00 | 0.00 | 0.00 | 70 | 1013.5 |
| 20260903093532 | 25 | 0 | 0.0 | 6.4 | 0.00 | 0.00 | 0.00 | 70 | 1013.5 |
| 20260903093046 | 25 | 0 | 0.0 | 8.0 | 0.00 | 0.00 | 0.00 | 70 | 1013.5 |
| 20260903092525 | 25 | 0 | 0.0 | 8.0 | 0.00 | 0.00 | 0.00 | 70 | 1013.4 |
| 20260903092026 | 25 | 0 | 0.0 | 8.0 | 0.00 | 0.00 | 0.00 | 70 | 1013.4 |
| 20260903091542 | 25 | 0 | 0.0 | 0.0 | 0.00 | 0.00 | 0.00 | 70 | 1013.4 |
| 20260903091024 | 25 | 0 | 0.0 | 0.0 | 0.00 | 0.00 | 0.00 | 69 | 1013.3 |
| 20260903090525 | 25 | 0 | 0.0 | 0.0 | 0.00 | 0.00 | 0.00 | 68 | 1013.3 |
| 20260903090051 | 25 | 0 | 0.0 | 0.0 | 0.00 | 0.00 | 0.00 | 68 | 1013.3 |
| 20260903085523 | 25 | 0 | 0.0 | 0.0 | 0.00 | 0.00 | 0.00 | 68 | 1013.4 |
| 20260903085024 | 25 | 0 | 0.0 | 0.0 | 0.00 | 0.00 | 0.00 | 68 | 1013.3 |
| 20260903084545 | 26 | 0 | 0.0 | 0.0 | 0.00 | 0.00 | 0.00 | 67 | 1013.4 |
| 20260903084025 | 26 | 0 | 0.0 | 0.0 | 0.00 | 0.00 | 0.00 | 66 | 1013.3 |
| 20260903083524 | 26 | 0 | 0.0 | 0.0 | 0.00 | 0.00 | 0.00 | 65 | 1013.3 |
| 20260903083041 | 26 | 0 | 0.0 | 4.8 | 0.00 | 0.00 | 0.00 | 65 | 1013.3 |
| 20260903082523 | 26 | 0 | 0.0 | 6.4 | 0.00 | 0.00 | 0.00 | 65 | 1013.4 |
| 20260903082024 | 26 | 0 | 0.0 | 9.7 | 0.00 | 0.00 | 0.00 | 65 | 1013.3 |
| 20260903081551 | 26 | 164 | 1.6 | 9.7 | 0.00 | 0.00 | 0.00 | 65 | 1013.3 |
| 20260903081027 | 26 | 0 | 0.0 | 9.7 | 0.00 | 0.00 | 0.00 | 67 | 1013.3 |
| 20260903080526 | 25 | 154 | 0.0 | 9.7 | 0.00 | 0.00 | 0.00 | 68 | 1013.2 |
| 20260903080047 | 25 | 181 | 0.0 | 0.0 | 0.00 | 0.00 | 0.00 | 67 | 1013.2 |
| 20260903075525 | 25 | 0 | 0.0 | 0.0 | 0.00 | 0.00 | 0.00 | 67 | 1013.1 |
| 20260903075023 | 26 | 0 | 0.0 | 0.0 | 0.00 | 0.00 | 0.00 | 66 | 1013.1 |
| 20260903074541 | 26 | 0 | 0.0 | 0.0 | 0.00 | 0.00 | 0.00 | 66 | 1013.1 |
| 20260903074024 | 26 | 0 | 0.0 | 0.0 | 0.00 | 0.00 | 0.00 | 65 | 1013.2 |
| 20260903073528 | 26 | 0 | 0.0 | 0.0 | 0.00 | 0.00 | 0.00 | 65 | 1013.2 |
| 20260903073046 | 26 | 0 | 0.0 | 0.0 | 0.00 | 0.00 | 0.00 | 64 | 1013.1 |
| 20260903072522 | 26 | 0 | 0.0 | 0.0 | 0.00 | 0.00 | 0.00 | 64 | 1013.2 |
| 20260903072024 | 26 | 0 | 0.0 | 1.6 | 0.00 | 0.00 | 0.00 | 63 | 1013.1 |
| 20260903071547 | 26 | 0 | 0.0 | 1.6 | 0.00 | 0.00 | 0.00 | 63 | 1013.2 |
| 20260903071023 | 27 | 0 | 0.0 | 1.6 | 0.00 | 0.00 | 0.00 | 62 | 1013.2 |
| 20260903070526 | 27 | 0 | 0.0 | 1.6 | 0.00 | 0.00 | 0.00 | 62 | 1013.2 |
| 20260903070046 | 27 | 0 | 0.0 | 1.6 | 0.00 | 0.00 | 0.00 | 62 | 1013.1 |
| 20260903065525 | 27 | 0 | 0.0 | 1.6 | 0.00 | 0.00 | 0.00 | 61 | 1013.2 |
| 20260903065024 | 27 | 0 | 0.0 | 4.8 | 0.00 | 0.00 | 0.00 | 61 | 1013.1 |
| 20260903064540 | 27 | 0 | 0.0 | 4.8 | 0.00 | 0.00 | 0.00 | 61 | 1013.1 |
| 20260903064024 | 27 | 185 | 0.0 | 4.8 | 0.00 | 0.00 | 0.00 | 61 | 1013.1 |
| 20260903063524 | 27 | 0 | 0.0 | 4.8 | 0.00 | 0.00 | 0.00 | 61 | 1013.1 |
| 20260903063055 | 27 | 185 | 0.0 | 4.8 | 0.00 | 0.00 | 0.00 | 61 | 1013.1 |
| 20260903062527 | 27 | 0 | 0.0 | 8.0 | 0.00 | 0.00 | 0.00 | 61 | 1013.1 |
| 20260903062026 | 27 | 0 | 0.0 | 8.0 | 0.00 | 0.00 | 0.00 | 60 | 1013.1 |
| 20260903061559 | 27 | 0 | 1.6 | 6.4 | 0.00 | 0.00 | 0.00 | 61 | 1013.1 |
| 20260903061023 | 27 | 0 | 0.0 | 6.4 | 0.00 | 0.00 | 0.00 | 61 | 1013.2 |
| 20260903060524 | 27 | 0 | 0.0 | 6.4 | 0.00 | 0.00 | 0.00 | 61 | 1013.1 |
| 20260903060048 | 27 | 0 | 0.0 | 6.4 | 0.00 | 0.00 | 0.00 | 61 | 1013.1 |
| 20260903055528 | 27 | 0 | 0.0 | 6.4 | 0.00 | 0.00 | 0.00 | 60 | 1013.1 |
| 20260903055024 | 27 | 0 | 0.0 | 8.0 | 0.00 | 0.00 | 0.00 | 60 | 1013.1 |
| 20260903054542 | 27 | 0 | 0.0 | 8.0 | 0.00 | 0.00 | 0.00 | 60 | 1013.1 |
| 20260903054024 | 27 | 0 | 0.0 | 8.0 | 0.00 | 0.00 | 0.00 | 60 | 1013.1 |
| 20260903053523 | 27 | 194 | 0.0 | 4.8 | 0.00 | 0.00 | 0.00 | 60 | 1013.0 |
| 20260903053105 | 27 | 0 | 0.0 | 1.6 | 0.00 | 0.00 | 0.00 | 60 | 1013.0 |
| 20260903052523 | 28 | 0 | 0.0 | 1.6 | 0.00 | 0.00 | 0.00 | 59 | 1013.1 |
| 20260903052025 | 28 | 0 | 0.0 | 1.6 | 0.00 | 0.00 | 0.00 | 59 | 1013.1 |
| 20260903051548 | 28 | 0 | 0.0 | 1.6 | 0.00 | 0.00 | 0.00 | 58 | 1013.2 |
| 20260903051024 | 28 | 0 | 0.0 | 1.6 | 0.00 | 0.00 | 0.00 | 58 | 1013.1 |
| 20260903050524 | 28 | 0 | 0.0 | 1.6 | 0.00 | 0.00 | 0.00 | 57 | 1013.1 |
| 20260903050053 | 28 | 0 | 0.0 | 3.2 | 0.00 | 0.00 | 0.00 | 57 | 1013.1 |
| 20260903045525 | 28 | 0 | 0.0 | 4.8 | 0.00 | 0.00 | 0.00 | 56 | 1013.2 |
| 20260903045023 | 28 | 0 | 0.0 | 4.8 | 0.00 | 0.00 | 0.00 | 56 | 1013.1 |
| 20260903044549 | 28 | 139 | 0.0 | 3.2 | 0.00 | 0.00 | 0.00 | 56 | 1013.1 |
| 20260903044023 | 29 | 0 | 0.0 | 3.2 | 0.00 | 0.00 | 0.00 | 55 | 1013.1 |
| 20260903043524 | 29 | 0 | 0.0 | 4.8 | 0.00 | 0.00 | 0.00 | 55 | 1013.1 |
| 20260903043045 | 29 | 0 | 1.6 | 6.4 | 0.00 | 0.00 | 0.00 | 55 | 1013.2 |
| 20260903042526 | 29 | 0 | 0.0 | 6.4 | 0.00 | 0.00 | 0.00 | 55 | 1013.3 |
| 20260903042024 | 29 | 175 | 0.0 | 8.0 | 0.00 | 0.00 | 0.00 | 55 | 1013.3 |
| 20260903041542 | 29 | 0 | 0.0 | 8.0 | 0.00 | 0.00 | 0.00 | 54 | 1013.3 |
| 20260903041025 | 29 | 0 | 0.0 | 6.4 | 0.00 | 0.00 | 0.00 | 54 | 1013.4 |
| 20260903040524 | 29 | 0 | 0.0 | 6.4 | 0.00 | 0.00 | 0.00 | 54 | 1013.3 |
| 20260903040040 | 30 | 152 | 0.0 | 4.8 | 0.00 | 0.00 | 0.00 | 54 | 1013.3 |
| 20260903035527 | 30 | 0 | 0.0 | 4.8 | 0.00 | 0.00 | 0.00 | 53 | 1013.3 |
| 20260903035024 | 30 | 155 | 0.0 | 6.4 | 0.00 | 0.00 | 0.00 | 54 | 1013.3 |
| 20260903034546 | 30 | 0 | 0.0 | 6.4 | 0.00 | 0.00 | 0.00 | 53 | 1013.3 |
| 20260903034024 | 30 | 0 | 0.0 | 6.4 | 0.00 | 0.00 | 0.00 | 53 | 1013.3 |
| 20260903033524 | 30 | 0 | 0.0 | 6.4 | 0.00 | 0.00 | 0.00 | 53 | 1013.4 |
| 20260903033051 | 30 | 0 | 1.6 | 8.0 | 0.00 | 0.00 | 0.00 | 53 | 1013.3 |
| 20260903032523 | 30 | 0 | 3.2 | 8.0 | 0.00 | 0.00 | 0.00 | 52 | 1013.3 |
| 20260903032026 | 30 | 164 | 1.6 | 9.7 | 0.00 | 0.00 | 0.00 | 52 | 1013.2 |
| 20260903031549 | 30 | 167 | 1.6 | 9.7 | 0.00 | 0.00 | 0.00 | 52 | 1013.2 |
| 20260903031024 | 30 | 165 | 1.6 | 11.3 | 0.00 | 0.00 | 0.00 | 52 | 1013.3 |
| 20260903030524 | 30 | 134 | 1.6 | 11.3 | 0.00 | 0.00 | 0.00 | 52 | 1013.2 |
| 20260903030106 | 30 | 168 | 1.6 | 9.7 | 0.00 | 0.00 | 0.00 | 52 | 1013.2 |
| 20260903025529 | 31 | 159 | 0.0 | 11.3 | 0.00 | 0.00 | 0.00 | 51 | 1013.1 |
| 20260903025024 | 31 | 0 | 1.6 | 12.9 | 0.00 | 0.00 | 0.00 | 51 | 1013.1 |
| 20260903024548 | 31 | 0 | 1.6 | 12.9 | 0.00 | 0.00 | 0.00 | 51 | 1013.1 |
| 20260903024023 | 31 | 0 | 1.6 | 9.7 | 0.00 | 0.00 | 0.00 | 51 | 1013.1 |
| 20260903023524 | 31 | 169 | 3.2 | 12.9 | 0.00 | 0.00 | 0.00 | 51 | 1013.1 |
| 20260903023046 | 31 | 138 | 1.6 | 12.9 | 0.00 | 0.00 | 0.00 | 51 | 1013.1 |
| 20260903022524 | 31 | 146 | 3.2 | 8.0 | 0.00 | 0.00 | 0.00 | 50 | 1013.1 |
| 20260903022024 | 31 | 0 | 1.6 | 8.0 | 0.00 | 0.00 | 0.00 | 50 | 1013.0 |
| 20260903021542 | 31 | 0 | 0.0 | 9.7 | 0.00 | 0.00 | 0.00 | 50 | 1013.0 |
| 20260903021026 | 31 | 0 | 1.6 | 9.7 | 0.00 | 0.00 | 0.00 | 50 | 1013.0 |
| 20260903020526 | 31 | 0 | 3.2 | 9.7 | 0.00 | 0.00 | 0.00 | 50 | 1012.9 |
| 20260903020050 | 31 | 157 | 1.6 | 11.3 | 0.00 | 0.00 | 0.00 | 49 | 1012.9 |
| 20260903015525 | 31 | 201 | 1.6 | 11.3 | 0.00 | 0.00 | 0.00 | 49 | 1012.8 |
| 20260903015023 | 31 | 161 | 3.2 | 11.3 | 0.00 | 0.00 | 0.00 | 49 | 1012.7 |
| 20260903014555 | 31 | 176 | 0.0 | 6.4 | 0.00 | 0.00 | 0.00 | 49 | 1012.7 |
| 20260903014026 | 31 | 0 | 0.0 | 4.8 | 0.00 | 0.00 | 0.00 | 48 | 1012.6 |
| 20260903013526 | 32 | 0 | 0.0 | 4.8 | 0.00 | 0.00 | 0.00 | 48 | 1012.6 |
| 20260903013045 | 32 | 0 | 0.0 | 8.0 | 0.00 | 0.00 | 0.00 | 47 | 1012.5 |
| 20260903012526 | 32 | 170 | 1.6 | 8.0 | 0.00 | 0.00 | 0.00 | 46 | 1012.4 |
| 20260903012025 | 32 | 185 | 1.6 | 8.0 | 0.00 | 0.00 | 0.00 | 46 | 1012.3 |
| 20260903011605 | 32 | 151 | 0.0 | 8.0 | 0.00 | 0.00 | 0.00 | 46 | 1012.2 |
| 20260903011026 | 32 | 0 | 0.0 | 8.0 | 0.00 | 0.00 | 0.00 | 46 | 1012.1 |
| 20260903010525 | 32 | 0 | 0.0 | 8.0 | 0.00 | 0.00 | 0.00 | 46 | 1012.1 |
| 20260903010059 | 32 | 0 | 0.0 | 4.8 | 0.00 | 0.00 | 0.00 | 46 | 1012.1 |
| 20260903005523 | 33 | 150 | 0.0 | 4.8 | 0.00 | 0.00 | 0.00 | 45 | 1012.2 |
| 20260903005026 | 33 | 0 | 0.0 | 6.4 | 0.00 | 0.00 | 0.00 | 45 | 1012.2 |
| 20260903004546 | 33 | 0 | 0.0 | 6.4 | 0.00 | 0.00 | 0.00 | 44 | 1012.1 |
| 20260903004025 | 33 | 0 | 0.0 | 6.4 | 0.00 | 0.00 | 0.00 | 44 | 1012.1 |
| 20260903003525 | 33 | 98 | 1.6 | 8.0 | 0.00 | 0.00 | 0.00 | 43 | 1012.1 |
| 20260903003043 | 34 | 119 | 0.0 | 8.0 | 0.00 | 0.00 | 0.00 | 43 | 1012.1 |
| 20260903002525 | 34 | 133 | 0.0 | 9.7 | 0.00 | 0.00 | 0.00 | 43 | 1012.0 |
| 20260903002026 | 34 | 166 | 1.6 | 11.3 | 0.00 | 0.00 | 0.00 | 42 | 1012.0 |
| 20260903001552 | 35 | 158 | 4.8 | 11.3 | 0.00 | 0.00 | 0.00 | 42 | 1012.1 |
| 20260903001025 | 35 | 175 | 1.6 | 11.3 | 0.00 | 0.00 | 0.00 | 41 | 1012.1 |
| 20260903000523 | 35 | 180 | 3.2 | 14.5 | 0.00 | 0.00 | 0.00 | 41 | 1012.1 |
| 20260903000048 | 35 | 0 | 3.2 | 14.5 | 0.00 | 0.00 | 0.00 | 41 | 1012.1 |
| 20260902235525 | 35 | 169 | 1.6 | 12.9 | 0.00 | 0.00 | 0.00 | 41 | 1012.1 |
| 20260902235025 | 35 | 171 | 6.4 | 12.9 | 0.00 | 0.00 | 0.00 | 41 | 1012.2 |
| 20260902234546 | 35 | 165 | 3.2 | 14.5 | 0.00 | 0.00 | 0.00 | 41 | 1012.2 |
| 20260902234026 | 35 | 0 | 4.8 | 14.5 | 0.00 | 0.00 | 0.00 | 40 | 1012.1 |
| 20260902233526 | 35 | 155 | 4.8 | 14.5 | 0.00 | 0.00 | 0.00 | 40 | 1012.2 |
| 20260902233046 | 35 | 173 | 4.8 | 14.5 | 0.00 | 0.00 | 0.00 | 39 | 1012.2 |
| 20260902232529 | 35 | 180 | 3.2 | 24.1 | 0.00 | 0.00 | 0.00 | 40 | 1012.1 |
| 20260902232023 | 35 | 0 | 6.4 | 24.1 | 0.00 | 0.00 | 0.00 | 39 | 1012.2 |
| 20260902231600 | 35 | 197 | 4.8 | 20.9 | 0.00 | 0.00 | 0.00 | 39 | 1012.3 |